TimeCST,TemperatureF,Dew PointF,Humidity,Sea Level PressureIn,VisibilityMPH,Wind Direction,Wind SpeedMPH,Gust SpeedMPH,PrecipitationIn,Events,Conditions,WindDirDegrees,DateUTC
12:53 AM,46.0,37.9,73,29.98,10.0,East,6.9,-,N/A,,Mostly Cloudy,80,2013-02-12 06:53:00
1:53 AM,46.9,39.0,74,30.01,10.0,Calm,Calm,-,N/A,,Mostly Cloudy,0,2013-02-12 07:53:00
2:53 AM,48.0,41.0,77,29.99,10.0,NE,8.1,-,N/A,,Overcast,50,2013-02-12 08:53:00
3:53 AM,46.9,42.1,83,29.96,10.0,NE,5.8,-,0.00,Rain,Light Rain,50,2013-02-12 09:53:00
4:12 AM,46.9,43.0,86,29.94,10.0,ENE,10.4,-,0.00,Rain,Light Rain,60,2013-02-12 10:12:00
4:53 AM,46.0,43.0,89,29.92,4.0,ENE,12.7,-,N/A,Rain,Rain,70,2013-02-12 10:53:00
5:53 AM,46.0,43.0,89,29.92,4.0,NNW,6.9,-,0.06,Rain,Rain,330,2013-02-12 11:53:00
6:13 AM,46.0,43.0,89,29.91,4.0,NE,8.1,-,N/A,Rain,Rain,50,2013-02-12 12:13:00
6:41 AM,46.0,44.1,93,29.90,7.0,NE,5.8,-,N/A,Rain,Light Rain,40,2013-02-12 12:41:00
6:53 AM,46.0,43.0,89,29.90,10.0,ENE,4.6,-,0.10,,Overcast,70,2013-02-12 12:53:00
7:28 AM,46.0,44.1,93,29.89,7.0,East,9.2,-,0.03,Rain,Light Rain,80,2013-02-12 13:28:00
7:53 AM,46.9,43.0,86,29.89,10.0,NE,11.5,-,0.03,,Light Drizzle,50,2013-02-12 13:53:00
8:42 AM,46.9,44.1,90,29.92,2.5,NNE,6.9,-,0.06,Rain,Rain,30,2013-02-12 14:42:00
8:53 AM,46.9,44.1,90,29.91,1.5,NNE,6.9,-,0.10,Rain,Light Rain,20,2013-02-12 14:53:00
8:58 AM,46.9,44.1,90,29.93,2.5,North,5.8,-,0.00,Rain,Light Rain,10,2013-02-12 14:58:00
9:20 AM,46.9,44.1,90,29.93,2.0,North,5.8,-,0.01,Rain,Light Rain,360,2013-02-12 15:20:00
9:53 AM,46.9,45.0,93,29.94,2.5,NE,3.5,-,0.02,Rain,Light Rain,40,2013-02-12 15:53:00
10:53 AM,46.9,45.0,93,29.93,2.5,NNE,8.1,-,0.00,,Overcast,30,2013-02-12 16:53:00
11:53 AM,48.0,45.0,89,29.92,7.0,NNE,8.1,-,N/A,,Overcast,20,2013-02-12 17:53:00
12:53 PM,48.0,44.1,86,29.89,10.0,NNE,6.9,-,N/A,,Overcast,20,2013-02-12 18:53:00
1:53 PM,48.0,44.1,86,29.87,8.0,NE,4.6,-,N/A,,Overcast,40,2013-02-12 19:53:00
2:53 PM,48.0,44.1,86,29.86,10.0,NNW,6.9,-,N/A,,Overcast,330,2013-02-12 20:53:00
3:53 PM,48.0,44.1,86,29.88,8.0,NW,9.2,-,N/A,,Overcast,320,2013-02-12 21:53:00
4:13 PM,48.0,44.1,86,29.88,5.0,NW,8.1,-,N/A,,Overcast,320,2013-02-12 22:13:00
4:31 PM,48.0,44.1,86,29.88,10.0,NW,8.1,-,N/A,,Overcast,320,2013-02-12 22:31:00
4:40 PM,48.0,44.1,86,29.88,10.0,NW,8.1,-,N/A,,Overcast,320,2013-02-12 22:40:00
4:53 PM,48.0,44.1,86,29.88,10.0,NW,10.4,-,N/A,,Overcast,320,2013-02-12 22:53:00
4:58 PM,48.0,44.1,86,29.88,10.0,NW,10.4,-,N/A,,Overcast,310,2013-02-12 22:58:00
5:05 PM,48.0,44.1,86,29.88,10.0,NW,9.2,-,N/A,,Overcast,320,2013-02-12 23:05:00
5:53 PM,48.0,43.0,83,29.88,10.0,NW,11.5,-,N/A,,Overcast,320,2013-02-12 23:53:00
6:07 PM,48.0,43.0,83,29.90,10.0,WNW,12.7,-,N/A,,Overcast,300,2013-02-13 00:07:00
6:19 PM,48.0,43.0,83,29.90,10.0,NW,13.8,-,N/A,,Overcast,310,2013-02-13 00:19:00
6:44 PM,46.9,42.1,83,29.92,10.0,NW,11.5,-,N/A,,Overcast,320,2013-02-13 00:44:00
6:53 PM,46.9,42.1,83,29.92,10.0,NW,11.5,-,N/A,,Overcast,320,2013-02-13 00:53:00
7:53 PM,46.9,42.1,83,29.94,10.0,NW,11.5,-,N/A,,Mostly Cloudy,320,2013-02-13 01:53:00
8:18 PM,46.9,43.0,86,29.96,10.0,NW,9.2,-,N/A,,Mostly Cloudy,320,2013-02-13 02:18:00
8:34 PM,46.9,43.0,86,29.96,10.0,NW,9.2,-,N/A,,Overcast,320,2013-02-13 02:34:00
8:53 PM,46.9,43.0,86,29.96,10.0,NW,12.7,-,N/A,,Overcast,310,2013-02-13 02:53:00
8:57 PM,46.9,43.0,86,29.96,10.0,NNW,13.8,-,0.00,Rain,Light Rain,330,2013-02-13 02:57:00
9:10 PM,46.0,43.0,89,29.97,10.0,NW,13.8,-,0.00,,Overcast,320,2013-02-13 03:10:00
9:39 PM,45.0,42.1,90,29.98,9.0,NW,13.8,-,0.00,,Overcast,320,2013-02-13 03:39:00
9:53 PM,44.1,41.0,89,29.99,3.0,NW,24.2,28.8,0.00,Rain,Light Rain,310,2013-02-13 03:53:00
10:53 PM,43.0,39.0,86,30.01,10.0,NW,18.4,-,0.01,Rain,Light Rain,320,2013-02-13 04:53:00
11:02 PM,43.0,39.0,86,30.01,10.0,NW,21.9,27.6,0.00,,Overcast,320,2013-02-13 05:02:00
11:13 PM,42.1,37.9,85,30.02,10.0,NNW,24.2,-,0.00,,Overcast,330,2013-02-13 05:13:00
11:53 PM,41.0,37.0,86,30.04,10.0,NW,17.3,-,0.00,,Overcast,310,2013-02-13 05:53:00